When you browse on this site, cookies collect data to enhance your experience and personalize the content and advertising you see.
Visit our Privacy Policy to learn more. By continuing to use the site, you agree to this use of cookies and data.
  • In Schweiz
  • Länderverzeichnis
  • Für 7 Tage
  • Wassertemperatur
  • Satellitenkarten
  • Wetterkarte
  • Widgets
  • user-avatar
    Anmelden

    Stündliche Wetter Schiraz

    Heute, 10 Dezember, Montag

    Zeit Temperatur Niederschläge Wind Luftdruck Luftfeuchtigkeit
    00:00 +9°C° 0 mm 1 m/S 636 mmHg 40%
    01:00 +9°C° 0 mm 1 m/S 636 mmHg 40%
    02:00 +9°C° 0 mm 1 m/S 635 mmHg 40%
    03:00 +9°C° 0 mm 1 m/S 635 mmHg 40%
    04:00 +8°C° 0 mm 1 m/S 635 mmHg 39%
    05:00 +8°C° 0 mm 1 m/S 635 mmHg 39%
    06:00 +8°C° 0 mm 1 m/S 635 mmHg 39%
    07:00 +8°C° 0 mm 1 m/S 635 mmHg 40%
    08:00 +9°C° 0 mm 1 m/S 636 mmHg 35%
    09:00 +11°C° 0 mm 1 m/S 636 mmHg 30%
    10:00 +12°C° 0 mm 1 m/S 637 mmHg 25%
    11:00 +13°C° 0 mm 1 m/S 637 mmHg 23%
    12:00 +14°C° 0 mm 1 m/S 637 mmHg 21%
    13:00 +15°C° 0 mm 2 m/S 637 mmHg 19%
    14:00 +15°C° 0 mm 2 m/S 637 mmHg 19%
    15:00 +16°C° 0 mm 2 m/S 636 mmHg 19%
    16:00 +16°C° 0 mm 2 m/S 636 mmHg 19%
    17:00 +15°C° 0 mm 2 m/S 636 mmHg 23%
    18:00 +13°C° 0 mm 2 m/S 636 mmHg 28%
    19:00 +12°C° 0 mm 1 m/S 636 mmHg 32%
    20:00 +12°C° 0 mm 1 m/S 636 mmHg 33%
    21:00 +11°C° 0 mm 1 m/S 636 mmHg 35%
    22:00 +10°C° 0 mm 1 m/S 636 mmHg 36%
    23:00 +10°C° 0 mm 1 m/S 635 mmHg 36%

    Morgen, 11 Dezember, Dienstag

    Zeit Temperatur Niederschläge Wind Luftdruck Luftfeuchtigkeit
    00:00 +10°C° 0 mm 1 m/S 635 mmHg 37%
    01:00 +10°C° 0 mm 1 m/S 635 mmHg 37%
    02:00 +9°C° 0 mm 1 m/S 635 mmHg 38%
    03:00 +9°C° 0 mm 1 m/S 635 mmHg 39%
    04:00 +8°C° 0 mm 2 m/S 635 mmHg 40%
    05:00 +8°C° 0 mm 1 m/S 635 mmHg 40%
    06:00 +8°C° 0 mm 1 m/S 635 mmHg 41%
    07:00 +8°C° 0 mm 1 m/S 635 mmHg 42%
    08:00 +9°C° 0 mm 1 m/S 636 mmHg 37%
    09:00 +10°C° 0 mm 1 m/S 637 mmHg 33%
    10:00 +12°C° 0 mm 1 m/S 638 mmHg 29%
    11:00 +13°C° 0 mm 1 m/S 638 mmHg 26%
    12:00 +14°C° 0 mm 1 m/S 638 mmHg 24%
    13:00 +14°C° 0 mm 1 m/S 638 mmHg 22%
    14:00 +15°C° 0 mm 1 m/S 638 mmHg 22%
    15:00 +15°C° 0 mm 1 m/S 638 mmHg 22%
    16:00 +15°C° 0 mm 1 m/S 637 mmHg 22%
    17:00 +14°C° 0 mm 1 m/S 637 mmHg 27%
    18:00 +13°C° 0 mm 1 m/S 637 mmHg 33%
    19:00 +12°C° 0 mm 1 m/S 637 mmHg 38%
    20:00 +10°C° 0 mm 0 m/S 637 mmHg 39%
    21:00 +10°C° 0 mm 0 m/S 637 mmHg 40%
    22:00 +9°C° 0 mm 0 m/S 637 mmHg 40%
    23:00 +9°C° 0 mm 0 m/S 637 mmHg 40%

    übermorgen, 12 Dezember, Mittwoch

    Zeit Temperatur Niederschläge Wind Luftdruck Luftfeuchtigkeit
    00:00 +8°C° 0 mm 0 m/S 637 mmHg 40%
    01:00 +8°C° 0 mm 0 m/S 637 mmHg 40%
    02:00 +8°C° 0 mm 0 m/S 636 mmHg 40%
    03:00 +7°C° 0 mm 0 m/S 636 mmHg 40%
    04:00 +7°C° 0 mm 0 m/S 636 mmHg 40%
    05:00 +7°C° 0 mm 0 m/S 636 mmHg 40%
    06:00 +7°C° 0 mm 0 m/S 636 mmHg 39%
    07:00 +6°C° 0 mm 0 m/S 636 mmHg 39%
    08:00 +8°C° 0 mm 0 m/S 637 mmHg 34%
    09:00 +10°C° 0 mm 0 m/S 639 mmHg 28%
    10:00 +13°C° 0 mm 1 m/S 640 mmHg 23%
    11:00 +14°C° 0 mm 1 m/S 640 mmHg 22%
    12:00 +15°C° 0 mm 1 m/S 640 mmHg 20%
    13:00 +16°C° 0 mm 1 m/S 639 mmHg 19%
    14:00 +16°C° 0 mm 1 m/S 639 mmHg 19%
    15:00 +16°C° 0 mm 1 m/S 639 mmHg 19%
    16:00 +18°C° 0 mm 1 m/S 639 mmHg 19%
    17:00 +15°C° 0 mm 1 m/S 639 mmHg 25%
    18:00 +14°C° 0 mm 1 m/S 639 mmHg 31%
    19:00 +11°C° 0 mm 0 m/S 638 mmHg 38%
    20:00 +11°C° 0 mm 0 m/S 638 mmHg 38%
    21:00 +10°C° 0 mm 0 m/S 638 mmHg 39%
    22:00 +10°C° 0 mm 0 m/S 638 mmHg 39%
    23:00 +9°C° 0 mm 0 m/S 638 mmHg 39%

    13 Dezember, Donnerstag

    Zeit Temperatur Niederschläge Wind Luftdruck Luftfeuchtigkeit
    00:00 +9°C° 0 mm 0 m/S 638 mmHg 39%
    01:00 +9°C° 0 mm 0 m/S 638 mmHg 40%
    02:00 +8°C° 0 mm 0 m/S 637 mmHg 40%
    03:00 +8°C° 0 mm 0 m/S 637 mmHg 39%
    04:00 +7°C° 0 mm 0 m/S 637 mmHg 39%
    05:00 +7°C° 0 mm 0 m/S 637 mmHg 39%
    06:00 +7°C° 0 mm 0 m/S 637 mmHg 39%
    07:00 +7°C° 0 mm 0 m/S 637 mmHg 38%
    08:00 +8°C° 0 mm 0 m/S 638 mmHg 33%
    09:00 +11°C° 0 mm 1 m/S 639 mmHg 27%
    10:00 +13°C° 0 mm 1 m/S 641 mmHg 22%
    11:00 +14°C° 0 mm 1 m/S 640 mmHg 20%
    12:00 +15°C° 0 mm 1 m/S 640 mmHg 19%
    13:00 +16°C° 0 mm 1 m/S 640 mmHg 17%
    14:00 +16°C° 0 mm 1 m/S 640 mmHg 17%
    15:00 +16°C° 0 mm 2 m/S 640 mmHg 17%
    16:00 +16°C° 0 mm 2 m/S 639 mmHg 17%
    17:00 +15°C° 0 mm 1 m/S 639 mmHg 22%
    18:00 +13°C° 0 mm 1 m/S 639 mmHg 27%
    19:00 +12°C° 0 mm 1 m/S 639 mmHg 32%
    20:00 +11°C° 0 mm 1 m/S 639 mmHg 33%
    21:00 +11°C° 0 mm 1 m/S 639 mmHg 34%
    22:00 +10°C° 0 mm 1 m/S 639 mmHg 34%
    23:00 +10°C° 0 mm 1 m/S 638 mmHg 34%

    14 Dezember, Freitag

    Zeit Temperatur Niederschläge Wind Luftdruck Luftfeuchtigkeit
    00:00 +9°C° 0 mm 1 m/S 638 mmHg 34%
    01:00 +9°C° 0 mm 1 m/S 638 mmHg 35%
    02:00 +8°C° 0 mm 1 m/S 638 mmHg 34%
    03:00 +7°C° 0 mm 0 m/S 637 mmHg 34%
    04:00 +7°C° 0 mm 0 m/S 637 mmHg 34%
    05:00 +6°C° 0 mm 0 m/S 637 mmHg 33%
    06:00 +6°C° 0 mm 0 m/S 637 mmHg 33%
    07:00 +6°C° 0 mm 0 m/S 637 mmHg 32%
    08:00 +8°C° 0 mm 0 m/S 638 mmHg 27%
    09:00 +10°C° 0 mm 0 m/S 639 mmHg 22%
    10:00 +12°C° 0 mm 0 m/S 640 mmHg 18%
    11:00 +14°C° 0 mm 1 m/S 640 mmHg 17%
    12:00 +14°C° 0 mm 1 m/S 640 mmHg 16%
    13:00 +15°C° 0 mm 1 m/S 640 mmHg 15%
    14:00 +15°C° 0 mm 1 m/S 640 mmHg 15%
    15:00 +16°C° 0 mm 2 m/S 640 mmHg 16%
    16:00 +16°C° 0 mm 2 m/S 639 mmHg 17%
    17:00 +14°C° 0 mm 1 m/S 639 mmHg 22%
    18:00 +13°C° 0 mm 1 m/S 639 mmHg 27%
    19:00 +12°C° 0 mm 1 m/S 639 mmHg 32%
    20:00 +11°C° 0 mm 1 m/S 639 mmHg 33%
    21:00 +11°C° 0 mm 1 m/S 639 mmHg 35%
    22:00 +10°C° 0 mm 1 m/S 639 mmHg 36%
    23:00 +10°C° 0 mm 1 m/S 639 mmHg 37%

    15 Dezember, Samstag

    Zeit Temperatur Niederschläge Wind Luftdruck Luftfeuchtigkeit
    00:00 +9°C° 0 mm 1 m/S 638 mmHg 38%
    01:00 +9°C° 0 mm 1 m/S 638 mmHg 39%
    02:00 +9°C° 0 mm 1 m/S 638 mmHg 40%
    03:00 +8°C° 0 mm 1 m/S 638 mmHg 41%
    04:00 +8°C° 0 mm 1 m/S 637 mmHg 42%
    05:00 +8°C° 0 mm 1 m/S 637 mmHg 43%
    06:00 +8°C° 0 mm 1 m/S 637 mmHg 45%
    07:00 +7°C° 0 mm 1 m/S 637 mmHg 46%
    08:00 +9°C° 0 mm 1 m/S 638 mmHg 41%
    09:00 +10°C° 0 mm 1 m/S 639 mmHg 37%
    10:00 +12°C° 0 mm 1 m/S 640 mmHg 32%
    11:00 +13°C° 0 mm 1 m/S 640 mmHg 30%
    12:00 +14°C° 0 mm 1 m/S 640 mmHg 28%
    13:00 +15°C° 0 mm 2 m/S 639 mmHg 26%
    14:00 +15°C° 0 mm 2 m/S 639 mmHg 26%
    15:00 +15°C° 0 mm 2 m/S 639 mmHg 26%
    16:00 +15°C° 0 mm 2 m/S 639 mmHg 25%
    17:00 +14°C° 0 mm 1 m/S 639 mmHg 31%
    18:00 +13°C° 0 mm 1 m/S 639 mmHg 36%
    19:00 +12°C° 0 mm 1 m/S 639 mmHg 41%
    20:00 +11°C° 0 mm 1 m/S 639 mmHg 42%
    21:00 +11°C° 0 mm 1 m/S 639 mmHg 44%
    22:00 +10°C° 0 mm 1 m/S 639 mmHg 46%
    23:00 +10°C° 0 mm 1 m/S 639 mmHg 47%
    Mehr zeigen